Temperature
7 7 7 7 7 8 8 8 8 8 8 8 8 9 9 9 8 8 8 8 8 8 8 7 7 7 7 6 6 5 5 4 4 3 3 3 2 2 1 0 0 0 0
6 6 6 6 6 7 7 7 7 7 7 7 7 8 8 7 7 7 7 7 7 7 6 6 6 5 5 5 4 4 3 3 3 2 2 1 1 0 -0 -1 -1 -1 -1
5 5 5 5 5 6 6 6 6 6 6 6 6 6 6 6 6 6 6 6 5 5 5 4 4 4 4 3 3 2 2 2 1 1 1 0 -0 -1 -1 -1 -2 -2 -2
4 5 5 5 5 5 5 5 5 5 5 5 5 5 5 5 4 4 4 4 4 3 3 3 2 2 2 1 1 1 0 0 0 -0 -1 -1 -2 -3 -3 -3 -3 -3 -3
4 4 4 3 3 3 4 4 4 4 4 3 3 3 3 3 3 3 3 3 2 2 2 1 1 1 0 -0 -0 -1 -1 -1 -1 -2 -2 -3 -3 -4 -4 -4 -4 -4 -3
3 3 3 2 2 3 3 3 3 2 2 2 2 2 2 2 1 1 1 1 1 1 0 -0 -0 -1 -1 -1 -1 -2 -2 -2 -3 -3 -4 -4 -5 -5 -5 -5 -5 -5 -4
2 2 2 2 2 2 2 2 1 1 1 1 1 1 1 0 0 0 -0 -0 -0 -1 -1 -1 -1 -2 -2 -2 -3 -3 -3 -4 -4 -4 -5 -5 -5 -6 -6 -6 -6 -6 -5
1 1 1 1 1 1 1 1 1 0 0 0 -0 -0 -0 -1 -1 -1 -1 -1 -1 -2 -2 -2 -3 -3 -3 -3 -4 -4 -4 -4 -5 -5 -5 -5 -6 -6 -6 -6 -6 -6 -5
1 0 0 1 1 1 0 0 0 -0 -0 -0 -1 -1 -1 -1 -1 -2 -2 -2 -3 -3 -3 -3 -3 -4 -4 -5 -5 -5 -5 -6 -6 -6 -6 -6 -6 -6 -7 -7 -7 -7 -6
0 0 0 0 0 0 0 -0 -0 -0 -1 -1 -1 -2 -2 -2 -2 -3 -3 -3 -3 -4 -4 -4 -5 -5 -5 -5 -6 -6 -6 -6 -6 -6 -6 -6 -6 -6 -7 -7 -7 -7 -7
-0 -0 -0 -0 0 -0 -0 -0 -1 -1 -1 -2 -2 -2 -2 -3 -3 -3 -4 -4 -4 -5 -5 -5 -5 -6 -6 -6 -6 -6 -6 -6 -6 -6 -6 -6 -6 -6 -7 -7 -7 -7 -7
-0 -0 -0 -0 -0 -0 -0 -1 -1 -1 -2 -2 -3 -3 -3 -3 -4 -4 -4 -5 -5 -5 -5 -5 -6 -6 -6 -6 -6 -6 -6 -6 -6 -6 -6 -6 -7 -7 -7 -7 -7 -7 -7
-0 -0 -0 -0 -0 -0 -1 -1 -1 -2 -2 -3 -3 -3 -3 -4 -4 -4 -5 -5 -5 -5 -6 -6 -6 -6 -6 -6 -6 -6 -6 -6 -6 -7 -7 -7 -7 -7 -7 -7 -7 -6 -6
-0 -0 -0 -0 -0 -1 -1 -1 -1 -2 -2 -2 -3 -3 -4 -4 -4 -5 -5 -5 -5 -6 -6 -6 -6 -6 -6 -6 -6 -7 -7 -7 -7 -7 -7 -7 -7 -7 -7 -7 -7 -7 -6
-0 -0 -0 -0 -0 -1 -1 -1 -1 -2 -2 -2 -3 -3 -4 -4 -4 -5 -5 -5 -6 -6 -6 -6 -6 -6 -6 -7 -7 -7 -7 -7 -7 -7 -7 -7 -7 -7 -7 -7 -7 -7 -7
-0 -0 -0 -0 -0 -1 -1 -1 -2 -2 -2 -3 -3 -3 -4 -4 -5 -5 -5 -5 -6 -6 -6 -6 -6 -7 -7 -7 -7 -7 -7 -7 -8 -8 -8 -8 -8 -8 -7 -7 -8 -8 -8
0 -0 -0 -0 -1 -1 -1 -1 -1 -2 -2 -3 -3 -4 -4 -4 -5 -5 -5 -6 -6 -6 -7 -7 -7 -7 -7 -8 -8 -8 -8 -8 -8 -8 -8 -8 -8 -8 -8 -8 -8 -8 -8
-0 -0 -0 -0 -1 -1 -1 -1 -2 -2 -2 -3 -3 -4 -4 -5 -5 -5 -6 -6 -6 -7 -7 -7 -7 -8 -8 -8 -8 -8 -8 -8 -8 -8 -8 -8 -8 -8 -8 -8 -8 -9 -9
0 -0 -0 -0 -1 -1 -1 -2 -2 -2 -3 -3 -4 -4 -4 -5 -5 -6 -6 -6 -7 -7 -7 -7 -8 -8 -8 -8 -8 -8 -8 -8 -8 -8 -8 -8 -9 -9 -9 -9 -9 -9 -9
0 -0 -0 -1 -1 -1 -1 -2 -2 -2 -3 -3 -4 -4 -5 -5 -5 -6 -6 -7 -7 -7 -7 -8 -8 -8 -8 -8 -8 -8 -8 -8 -8 -9 -9 -9 -9 -9 -9 -9 -9 -9 -9
-0 -0 -1 -1 -1 -1 -2 -2 -2 -3 -3 -4 -4 -5 -5 -5 -6 -6 -6 -7 -7 -7 -8 -8 -8 -8 -8 -8 -8 -8 -8 -8 -9 -9 -9 -9 -9 -9 -9 -9 -9 -9 -9
-0 -0 -1 -1 -1 -1 -2 -2 -2 -3 -3 -4 -4 -5 -5 -6 -6 -6 -6 -7 -7 -7 -8 -8 -8 -8 -8 -8 -9 -9 -8 -8 -9 -9 -9 -9 -9 -9 -9 -9 -9 -9 -9
-0 -0 -1 -1 -1 -2 -2 -2 -2 -3 -3 -4 -4 -5 -5 -5 -6 -6 -6 -7 -7 -7 -8 -8 -8 -8 -8 -8 -9 -9 -9 -9 -9 -9 -9 -9 -9 -9 -9 -9 -9 -9 -9
-1 -1 -1 -1 -2 -2 -2 -2 -3 -3 -3 -4 -4 -5 -5 -5 -6 -6 -6 -7 -7 -7 -7 -8 -8 -8 -8 -8 -8 -9 -9 -9 -9 -9 -9 -9 -9 -9 -9 -9 -9 -9 -9
-1 -1 -1 -1 -2 -2 -2 -2 -3 -3 -3 -4 -4 -5 -5 -5 -6 -6 -6 -7 -7 -7 -7 -8 -8 -8 -8 -8 -8 -8 -9 -9 -9 -9 -9 -9 -9 -9 -9 -9 -9 -9 -9
-1 -1 -1 -2 -2 -2 -2 -3 -3 -3 -4 -4 -4 -5 -5 -6 -6 -6 -6 -7 -7 -7 -7 -8 -8 -8 -8 -8 -8 -8 -9 -9 -9 -9 -9 -9 -9 -9 -9 -9 -9 -9 -9
Wind_Speed
7 7 7 7 7 7 7 8 7 7 8 8 7 7 7 7 6 5 5 5 6 6 6 7 7 6 5 4 4 4 3 2 3 2 2 2 4 4 5 7 8 9 10
6 7 7 7 8 8 8 9 9 9 9 9 9 9 10 9 9 8 8 8 7 7 8 8 7 6 7 5 5 5 4 4 3 3 2 2 3 4 4 4 7 8 10
6 7 7 8 8 9 9 9 9 10 10 11 11 11 11 10 10 10 10 10 10 9 9 8 7 8 7 6 6 5 4 4 3 3 2 1 1 2 3 4 5 6 10
7 7 7 8 8 8 8 9 10 10 11 11 11 11 11 11 11 10 11 11 11 11 10 9 8 8 7 6 5 4 4 3 3 3 1 1 1 2 2 2 3 3 4
6 7 7 7 7 8 9 9 10 11 11 10 11 11 10 10 10 11 10 11 11 11 10 9 8 9 9 6 4 3 3 2 2 1 1 0 1 1 1 1 2 3 4
6 6 6 7 7 8 8 9 10 10 10 11 11 11 11 10 15 16 12 9 9 8 8 7 7 8 8 8 7 5 3 2 1 0 0 1 2 2 1 1 1 3 4
6 6 6 6 7 8 8 9 9 9 9 10 9 10 10 12 16 15 14 8 8 7 6 5 5 6 6 4 4 4 3 3 2 1 1 2 2 1 1 2 3 4 6
6 6 6 6 7 7 8 8 8 7 7 7 8 8 8 10 14 13 12 8 7 6 5 5 4 4 4 4 4 3 3 3 3 1 2 3 3 2 3 3 5 5 6
5 5 6 6 6 6 7 7 6 6 7 6 6 7 7 8 11 11 9 4 4 4 4 4 4 4 6 6 4 4 4 4 5 5 6 8 11 11 9 4 3 4 6
5 5 6 6 6 6 6 5 5 5 5 5 5 5 6 5 9 10 9 4 4 3 2 2 4 5 7 7 4 3 4 4 4 6 7 8 8 9 10 4 4 4 4
5 5 5 5 5 5 5 4 4 4 4 4 5 5 5 6 7 9 9 5 4 3 3 3 3 7 8 8 7 3 5 5 4 5 5 5 4 3 3 3 2 3 5
5 5 5 4 4 4 4 3 3 3 4 3 3 4 4 4 5 6 8 7 6 4 3 2 4 8 9 9 6 6 8 7 3 4 4 4 4 4 4 5 8 9 9
5 5 4 4 4 4 4 2 2 2 2 2 3 3 2 2 3 6 7 7 7 4 3 7 8 9 8 6 7 8 6 3 3 3 4 4 4 4 4 5 7 10 11
6 5 4 4 4 3 3 2 2 3 3 3 3 2 1 2 3 3 4 5 6 5 4 7 10 9 6 6 6 5 3 3 3 3 4 4 4 5 5 5 6 6 7
6 5 4 4 4 4 3 3 3 3 3 2 2 2 2 2 3 6 5 3 3 4 5 4 4 3 3 3 4 4 3 4 4 3 4 5 6 7 7 6 6 6 7
6 5 4 3 3 3 3 2 4 3 3 3 2 1 2 3 5 7 8 8 9 9 6 4 4 4 4 4 4 5 4 5 4 4 5 6 7 8 8 7 7 7 9
6 5 4 4 3 3 3 3 1 1 2 2 1 1 2 4 6 7 8 9 9 8 3 3 4 4 4 4 4 5 5 6 5 6 6 7 7 8 8 8 8 8 9
6 6 5 4 4 3 3 2 2 1 1 2 4 4 4 5 6 7 8 7 5 4 2 3 4 4 4 4 5 5 6 6 6 7 7 7 7 8 8 9 9 9 10
6 5 5 4 4 3 3 2 2 2 2 2 2 3 4 5 7 8 6 3 4 4 4 4 4 4 4 5 5 6 7 7 8 7 8 8 8 8 8 9 9 14 13
6 8 7 5 4 4 3 3 3 3 3 3 3 3 1 2 3 4 3 3 4 5 5 5 5 5 5 5 6 6 7 7 8 8 8 8 8 8 9 11 10 11 11
6 7 9 5 5 5 4 4 4 3 3 3 4 4 5 3 4 5 4 4 5 5 5 5 5 5 5 5 6 7 8 8 8 8 8 8 8 9 9 10 11 11 12
7 6 6 6 5 5 4 4 4 4 4 5 4 4 7 4 4 5 5 5 5 5 4 5 5 5 6 6 7 7 8 9 9 9 8 8 8 9 10 10 11 11 12
7 7 7 6 5 7 6 5 5 5 5 5 4 4 4 4 5 5 5 5 5 5 6 6 5 6 8 10 10 8 9 10 10 9 9 10 10 10 10 11 13 14 14
8 8 8 7 6 6 6 6 6 6 5 5 5 5 5 5 5 6 5 5 5 5 7 8 8 9 12 13 13 14 15 16 16 13 12 12 12 12 12 13 14 15 15
8 8 8 8 7 7 7 6 6 6 6 5 5 5 5 5 5 6 5 5 6 6 8 10 11 12 14 16 16 17 19 22 22 18 15 11 13 14 14 15 15 15 15
9 9 8 7 7 7 7 7 6 6 6 6 5 5 5 6 6 6 6 5 6 6 7 9 12 14 16 17 19 20 21 22 23 24 19 12 13 13 14 14 16 15 16
Wind_Direction
13 14 15 10 8 11 21 22 22 24 23 24 25 29 32 32 33 46 53 59 72 72 72 83 83 85 88 79 80 87 80 102 141 122 127 147 172 182 203 219 237 253 266
18 23 23 22 24 29 30 29 32 34 34 36 40 45 44 42 42 50 59 65 73 79 80 86 87 88 84 79 80 78 75 61 105 127 127 151 183 191 202 225 247 259 264
30 34 34 33 35 36 35 36 40 44 44 44 48 51 51 51 52 56 63 65 68 70 72 79 82 88 84 80 80 81 76 69 77 113 120 152 182 204 214 239 252 261 269
46 44 42 40 41 43 43 45 46 49 51 51 53 55 56 58 59 61 67 70 70 67 66 68 70 76 82 81 80 81 83 80 82 93 106 142 204 220 206 241 270 269 278
59 54 51 50 50 52 52 52 54 56 58 57 58 58 58 62 65 69 69 73 73 71 67 65 68 74 76 75 81 76 74 73 75 89 115 217 247 251 246 245 270 298 297
66 62 58 60 59 59 61 62 63 62 62 63 62 62 62 67 75 77 80 74 75 74 71 67 69 63 61 62 66 62 55 52 50 34 293 262 271 275 285 316 313 319 304
73 68 64 65 66 65 69 67 64 63 66 68 67 66 66 67 71 73 75 75 72 68 63 56 55 59 55 35 25 25 10 351 330 272 266 276 286 280 300 304 282 271 267
80 76 75 76 74 72 73 72 68 67 68 69 70 71 70 65 66 66 69 70 71 67 60 51 44 39 40 24 8 0 335 318 301 288 247 272 281 268 244 251 258 273 273
84 80 81 84 84 80 77 76 75 77 73 70 69 70 72 63 60 57 54 58 69 66 65 58 43 24 13 9 9 349 336 324 322 314 298 292 290 287 279 266 274 290 295
85 86 87 90 92 89 86 84 83 86 85 82 74 71 74 64 55 49 44 45 43 33 30 48 50 21 359 356 2 347 330 325 339 331 315 306 298 290 289 254 217 242 274
97 95 95 94 96 98 94 90 94 94 90 85 82 75 72 65 51 43 40 43 24 15 15 16 10 359 348 340 339 330 310 318 319 308 302 303 307 306 307 302 257 223 242
112 108 103 98 98 97 93 88 96 103 101 91 86 73 58 55 53 37 30 27 23 18 4 2 344 340 336 333 330 318 321 328 320 306 304 305 307 306 307 309 301 288 268
130 126 123 117 109 110 106 95 88 86 91 83 83 82 51 36 37 27 15 8 7 6 341 334 329 328 329 329 324 324 329 326 315 312 306 298 294 292 296 297 290 281 271
144 143 141 132 122 108 96 74 68 61 60 62 66 60 23 22 33 17 2 356 358 355 344 329 326 322 321 311 315 321 309 279 296 289 294 297 305 304 298 293 293 296 291
152 152 146 139 133 114 93 73 82 78 89 86 75 55 42 8 348 347 344 333 332 316 327 323 319 326 336 334 330 323 319 319 320 310 307 310 309 306 302 299 290 292 286
160 161 159 151 142 139 134 106 89 120 95 80 76 39 348 326 329 333 331 329 327 325 332 326 322 330 330 328 326 325 325 322 316 311 306 302 301 301 301 298 290 289 289
165 164 160 157 155 155 149 149 163 189 195 199 212 274 300 311 318 319 320 321 318 316 318 308 309 312 310 310 309 308 308 307 306 300 294 294 294 294 295 296 295 293 290
164 165 163 165 163 162 164 166 167 181 243 259 233 239 268 297 305 306 311 321 318 318 288 283 288 293 296 298 300 302 302 303 302 298 295 292 290 290 290 290 290 290 291
167 169 168 161 161 163 166 174 197 215 238 256 263 255 258 291 302 297 297 283 285 291 289 284 281 282 285 289 291 293 293 295 294 293 290 286 285 284 284 284 287 290 292
176 176 169 166 168 174 180 194 210 222 237 249 257 252 246 284 291 291 276 260 265 271 274 276 278 278 279 281 285 286 288 288 288 286 284 283 282 280 282 284 286 288 288
173 179 179 174 182 186 191 202 211 219 233 243 248 255 259 248 263 271 270 265 263 266 269 272 274 277 276 278 280 281 282 283 282 281 281 280 280 281 281 283 284 285 287
174 177 183 188 189 192 199 204 209 220 232 243 249 261 273 263 258 263 263 264 263 260 258 263 267 267 266 269 275 278 280 280 280 279 279 280 281 283 284 284 284 284 285
177 179 184 190 192 207 211 209 213 221 230 236 242 246 252 251 255 259 260 262 264 265 270 268 267 271 273 271 269 268 273 275 276 277 280 284 283 283 283 282 281 283 283
185 187 190 193 195 201 207 214 217 222 227 233 238 244 247 250 257 263 263 265 266 269 272 272 270 271 275 280 279 274 271 273 275 274 269 271 274 277 277 278 279 278 280
191 193 196 197 200 206 212 216 219 223 228 233 237 243 248 252 258 263 265 265 268 270 275 277 277 278 278 279 281 281 283 285 285 282 275 270 270 270 274 276 279 281 282
196 198 200 200 202 206 211 216 219 222 226 232 236 239 244 250 256 261 264 266 269 271 277 281 279 280 283 286 286 288 290 291 292 292 289 282 279 279 280 281 282 282 284
Height
1482 1481 1480 1479 1478 1477 1476 1475 1474 1473 1472 1471 1471 1470 1469 1469 1468 1467 1467 1467 1467 1467 1467 1468 1468 1468 1468 1468 1469 1469 1470 1471 1472 1473 1474 1476 1478 1478 1479 1481 1482 1482 1482
1480 1479 1477 1476 1475 1474 1473 1472 1471 1470 1469 1468 1467 1466 1465 1464 1464 1463 1463 1463 1463 1463 1463 1463 1463 1464 1464 1465 1465 1466 1467 1468 1469 1470 1470 1472 1474 1474 1475 1476 1477 1477 1477
1478 1477 1476 1474 1473 1472 1471 1469 1468 1467 1466 1465 1464 1463 1462 1462 1461 1460 1460 1460 1459 1460 1460 1461 1461 1461 1461 1462 1463 1464 1464 1465 1466 1467 1468 1470 1471 1471 1471 1472 1472 1471 1471
1477 1476 1475 1473 1472 1470 1469 1468 1467 1466 1465 1464 1463 1462 1461 1460 1460 1459 1459 1459 1458 1458 1459 1459 1460 1460 1460 1461 1462 1462 1463 1463 1464 1465 1466 1466 1467 1468 1467 1467 1467 1467 1466
1476 1475 1473 1472 1471 1470 1469 1467 1466 1465 1464 1464 1463 1462 1461 1460 1459 1459 1459 1459 1459 1459 1459 1459 1459 1460 1460 1461 1461 1461 1462 1462 1462 1462 1463 1463 1464 1464 1464 1463 1463 1462 1461
1475 1474 1473 1472 1471 1470 1469 1468 1467 1466 1465 1465 1464 1463 1462 1461 1461 1461 1460 1460 1460 1460 1460 1460 1460 1460 1460 1460 1461 1461 1461 1461 1460 1460 1460 1461 1461 1461 1461 1460 1459 1458 1456
1474 1474 1473 1472 1471 1470 1470 1469 1468 1468 1467 1466 1466 1465 1464 1463 1463 1462 1462 1462 1461 1461 1461 1461 1460 1460 1460 1460 1459 1459 1459 1458 1459 1459 1458 1458 1458 1458 1457 1457 1456 1454 1452
1474 1474 1473 1473 1472 1471 1471 1470 1470 1470 1469 1468 1468 1467 1466 1465 1465 1464 1464 1463 1462 1462 1462 1461 1461 1460 1459 1459 1458 1457 1457 1457 1456 1456 1456 1455 1455 1454 1454 1453 1452 1450 1448
1474 1474 1473 1473 1473 1473 1472 1472 1472 1471 1471 1470 1469 1469 1468 1467 1466 1466 1465 1464 1463 1462 1462 1461 1460 1459 1458 1458 1457 1456 1455 1455 1454 1454 1453 1453 1452 1452 1451 1450 1448 1446 1443
1474 1474 1474 1474 1474 1474 1474 1474 1473 1473 1472 1472 1471 1470 1469 1468 1467 1466 1465 1464 1463 1462 1461 1460 1459 1459 1458 1457 1455 1454 1453 1453 1452 1451 1450 1450 1449 1448 1448 1447 1445 1443 1440
1474 1475 1475 1475 1475 1475 1475 1475 1474 1474 1473 1473 1472 1471 1470 1469 1468 1467 1466 1464 1463 1462 1461 1460 1459 1458 1456 1455 1454 1453 1452 1451 1449 1449 1448 1447 1446 1445 1444 1443 1442 1440 1437
1475 1475 1475 1476 1476 1476 1476 1476 1475 1475 1474 1473 1472 1471 1470 1469 1468 1467 1466 1464 1463 1461 1460 1459 1458 1457 1455 1454 1452 1451 1450 1449 1448 1447 1446 1444 1443 1442 1441 1439 1438 1436 1433
1475 1475 1476 1476 1476 1476 1476 1476 1475 1475 1474 1473 1472 1471 1470 1469 1468 1466 1465 1463 1462 1461 1459 1458 1457 1455 1454 1452 1451 1450 1448 1447 1446 1444 1443 1442 1440 1438 1437 1435 1433 1430 1428
1474 1475 1476 1476 1476 1476 1476 1476 1475 1475 1474 1473 1472 1471 1470 1469 1467 1466 1464 1462 1461 1459 1458 1456 1455 1454 1452 1451 1449 1448 1447 1445 1443 1442 1440 1438 1437 1435 1433 1430 1428 1425 1422
1474 1474 1475 1475 1476 1476 1476 1475 1475 1474 1474 1473 1472 1470 1469 1468 1466 1465 1463 1461 1459 1458 1456 1455 1453 1452 1451 1449 1448 1446 1444 1443 1441 1439 1437 1435 1432 1430 1428 1426 1423 1420 1417
1472 1473 1474 1474 1475 1475 1475 1474 1474 1474 1473 1472 1470 1469 1468 1467 1465 1463 1461 1459 1458 1456 1455 1453 1452 1450 1448 1447 1445 1443 1442 1440 1437 1435 1433 1431 1428 1426 1423 1421 1419 1415 1412
1471 1472 1472 1473 1473 1473 1473 1473 1472 1472 1471 1470 1469 1468 1466 1464 1463 1461 1459 1457 1456 1454 1453 1451 1450 1448 1446 1444 1442 1440 1438 1437 1434 1432 1429 1427 1424 1422 1419 1416 1414 1410 1407
1469 1470 1471 1471 1472 1472 1471 1471 1471 1470 1469 1468 1467 1465 1464 1462 1460 1459 1457 1455 1454 1452 1450 1449 1447 1445 1444 1442 1439 1437 1435 1433 1431 1428 1426 1423 1420 1418 1415 1412 1409 1406 1402
1466 1467 1468 1469 1469 1469 1469 1469 1468 1468 1467 1465 1464 1463 1462 1460 1458 1456 1454 1453 1451 1449 1448 1446 1444 1442 1440 1438 1436 1434 1431 1429 1427 1424 1421 1419 1416 1413 1410 1407 1404 1401 1397
1463 1465 1466 1466 1467 1467 1467 1466 1466 1465 1464 1463 1461 1460 1459 1457 1455 1453 1452 1450 1448 1446 1444 1442 1441 1439 1437 1434 1432 1430 1427 1425 1422 1420 1417 1414 1411 1409 1405 1402 1399 1395 1391
1460 1461 1462 1463 1463 1463 1464 1463 1463 1462 1461 1460 1459 1457 1455 1454 1452 1450 1448 1446 1444 1442 1440 1438 1437 1435 1433 1430 1428 1425 1423 1420 1418 1415 1412 1409 1406 1403 1400 1397 1393 1390 1386
1455 1457 1458 1459 1459 1460 1460 1460 1459 1459 1458 1456 1455 1454 1452 1450 1448 1447 1445 1443 1441 1439 1436 1434 1432 1430 1428 1426 1423 1420 1418 1415 1413 1410 1406 1403 1401 1397 1394 1391 1387 1383 1380
1451 1452 1453 1454 1455 1456 1456 1456 1455 1455 1454 1453 1451 1450 1448 1446 1444 1442 1440 1438 1436 1434 1432 1430 1427 1425 1423 1421 1418 1416 1413 1410 1407 1404 1401 1398 1394 1391 1388 1384 1381 1377 1373
1445 1447 1448 1449 1450 1451 1451 1451 1451 1450 1450 1448 1447 1446 1444 1442 1440 1438 1436 1434 1432 1430 1428 1425 1423 1420 1418 1415 1413 1410 1408 1405 1402 1398 1395 1392 1388 1385 1381 1377 1374 1370 1366
1440 1442 1443 1444 1445 1446 1446 1446 1446 1446 1445 1444 1443 1441 1440 1438 1436 1434 1432 1430 1427 1425 1423 1420 1418 1415 1413 1410 1408 1405 1402 1399 1396 1393 1389 1386 1382 1378 1375 1371 1367 1363 1359
1434 1436 1437 1438 1440 1440 1441 1441 1441 1441 1440 1439 1438 1437 1435 1433 1431 1429 1427 1425 1422 1420 1418 1415 1413 1410 1407 1405 1402 1399 1396 1393 1390 1387 1384 1380 1376 1372 1369 1364 1360 1356 1352